Weather History for KHEQ - February, 2014

Change the Weather History Date:

Monday, February 10, 2014

  Actual Average Record
Temperature  
Mean Temperature 18 °F -  
Max Temperature 24 °F 45 °F 62 °F (2015)
Min Temperature 12 °F 18 °F 12 °F (2014)
Degree Days  
Heating Degree Days 47    
Moisture  
Dew Point 14 °F    
Average Humidity 83    
Maximum Humidity 93    
Minimum Humidity 68    
Precipitation  
Precipitation 0.00 in - - ()
Sea Level Pressure  
Sea Level Pressure 30.14 in    
Wind  
Wind Speed 8 mph (SSE)    
Max Wind Speed 12 mph    
Max Gust Speed -    
Visibility 10 miles    
Events Snow    
Averages and records for this station are not official NWS values.
T = Trace of Precipitation, MM = Missing Value Source: NWS Daily Summary

Daily Weather History Graph

Daily Weather History Graph

Search for Another Location

Airport or City:

Trip Planner

Search our weather history database for the weather conditions in past years. The results will help you decide how hot, cold, wet, or windy it might be!

Date:

Astronomy

Feb. 10, 2014 Rise Set
Actual Time 6:48 AM MST 5:18 PM MST
Civil Twilight 6:20 AM MST 5:46 PM MST
Nautical Twilight 5:48 AM MST 6:18 PM MST
Astronomical Twilight 5:16 AM MST 6:50 PM MST
Moon 1:48 PM MST (2/10) 3:44 AM MST (2/10)
Length of Visible Light 11h 25m
Length of Day
10h 29m
Waxing Gibbous, 85% of the Moon is Illuminated
Feb 10
Waxing Gibbous
Feb 14
Full
Feb 22
Last Quarter
Mar 1
New
Mar 8
First Quarter

Hourly Weather History & Observations

Time (MST) Temp. Windchill Dew Point Humidity Pressure Visibility Wind Dir Wind Speed Gust Speed Precip Events Conditions
12:15 AM 14.0 °F 3.9 °F 10.4 °F 86% 30.20 in 10.0 mi SSE 6.9 mph - N/A   Overcast
12:35 AM 14.0 °F 2.0 °F 10.4 °F 86% 30.19 in 10.0 mi SSE 9.2 mph - N/A Snow Light Snow
12:55 AM 14.0 °F 1.2 °F 10.4 °F 86% 30.18 in 10.0 mi SSE 10.4 mph - N/A   Overcast
1:15 AM 14.0 °F 2.0 °F 10.4 °F 86% 30.19 in 10.0 mi SSE 9.2 mph - N/A   Overcast
1:35 AM 14.0 °F 2.0 °F 10.4 °F 86% 30.18 in 10.0 mi SSE 9.2 mph - N/A   Overcast
1:55 AM 14.0 °F 2.9 °F 10.4 °F 86% 30.18 in 10.0 mi South 8.1 mph - N/A   Overcast
2:15 AM 14.0 °F 2.0 °F 10.4 °F 86% 30.18 in 10.0 mi South 9.2 mph - N/A   Overcast
2:35 AM 14.0 °F 2.9 °F 10.4 °F 86% 30.18 in 10.0 mi South 8.1 mph - N/A   Overcast
2:55 AM 14.0 °F 2.0 °F 10.4 °F 86% 30.16 in 10.0 mi SSE 9.2 mph - N/A   Overcast
3:15 AM 14.0 °F 2.9 °F 10.4 °F 86% 30.16 in 10.0 mi SSE 8.1 mph - N/A   Overcast
3:35 AM 14.0 °F 3.9 °F 10.4 °F 86% 30.16 in 10.0 mi SSE 6.9 mph - N/A   Overcast
3:55 AM 14.0 °F 1.2 °F 10.4 °F 86% 30.16 in 10.0 mi SSE 10.4 mph - N/A   Overcast
4:15 AM 14.0 °F 2.0 °F 10.4 °F 86% 30.16 in 10.0 mi SSE 9.2 mph - N/A   Overcast
4:35 AM 14.0 °F 1.2 °F 10.4 °F 86% 30.16 in 10.0 mi SSE 10.4 mph - N/A   Overcast
4:55 AM 12.2 °F -0.2 °F 8.6 °F 85% 30.15 in 10.0 mi SSE 9.2 mph - N/A   Overcast
5:15 AM 12.2 °F -1.0 °F 8.6 °F 85% 30.15 in 10.0 mi SSE 10.4 mph - N/A   Overcast
5:35 AM 12.2 °F -1.8 °F 8.6 °F 85% 30.16 in 10.0 mi South 11.5 mph - N/A Snow Light Snow
5:55 AM 12.2 °F 0.7 °F 8.6 °F 85% 30.15 in 10.0 mi SSE 8.1 mph - N/A Snow Light Snow
6:15 AM 12.2 °F -0.2 °F 8.6 °F 85% 30.15 in 7.0 mi SSE 9.2 mph - N/A Snow Light Snow
6:35 AM 12.2 °F 0.7 °F 8.6 °F 85% 30.14 in 10.0 mi SE 8.1 mph - N/A Snow Light Snow
6:50 AM 12.2 °F 1.7 °F 8.6 °F 85% 30.15 in 7.0 mi SSE 6.9 mph - N/A Snow Light Snow
7:15 AM 12.2 °F 2.9 °F 8.6 °F 85% 30.15 in 4.0 mi SE 5.8 mph - N/A Snow Light Snow
7:35 AM 12.2 °F 0.7 °F 8.6 °F 85% 30.16 in 5.0 mi SSE 8.1 mph - N/A Snow Light Snow
7:55 AM 14.0 °F 2.0 °F 10.4 °F 86% 30.16 in 7.0 mi SSE 9.2 mph - N/A Snow Light Snow
8:15 AM 14.0 °F 1.2 °F 10.4 °F 86% 30.14 in 7.0 mi SE 10.4 mph - N/A Snow Light Snow
8:30 AM 14.0 °F 2.0 °F 10.4 °F 86% 30.15 in 5.0 mi SSE 9.2 mph - N/A Snow Light Snow
8:55 AM 14.0 °F 0.5 °F 8.6 °F 79% 30.13 in 10.0 mi SE 11.5 mph - N/A Snow Light Snow
9:10 AM 14.0 °F 1.2 °F 8.6 °F 79% 30.14 in 10.0 mi SSE 10.4 mph - N/A Snow Light Snow
9:35 AM 14.0 °F 0.5 °F 8.6 °F 79% 30.13 in 7.0 mi SSE 11.5 mph - N/A Snow Light Snow
9:55 AM 17.6 °F 6.4 °F 10.4 °F 73% 30.14 in 10.0 mi SSE 9.2 mph - N/A   Overcast
10:15 AM 17.6 °F 6.4 °F 10.4 °F 73% 30.14 in 10.0 mi SSE 9.2 mph - N/A Snow Light Snow
10:30 AM 17.6 °F 5.7 °F 10.4 °F 73% 30.15 in 10.0 mi South 10.4 mph - N/A   Overcast
10:55 AM 19.4 °F 7.9 °F 12.2 °F 74% 30.15 in 10.0 mi SSE 10.4 mph - N/A   Overcast
11:10 AM 19.4 °F 7.9 °F 12.2 °F 74% 30.15 in 10.0 mi South 10.4 mph - N/A   Overcast
11:35 AM 19.4 °F 7.9 °F 12.2 °F 74% 30.14 in 10.0 mi SSE 10.4 mph - N/A Snow Light Snow
11:50 AM 19.4 °F 9.5 °F 12.2 °F 74% 30.14 in 10.0 mi SSE 8.1 mph - N/A   Mostly Cloudy
12:10 PM 21.2 °F 10.1 °F 12.2 °F 68% 30.13 in 10.0 mi SSE 10.4 mph - N/A   Overcast
12:35 PM 21.2 °F 10.9 °F 14.0 °F 74% 30.11 in 10.0 mi SSE 9.2 mph - N/A   Scattered Clouds
12:55 PM 21.2 °F 12.6 °F 14.0 °F 74% 30.10 in 10.0 mi SSE 6.9 mph - N/A   Scattered Clouds
1:15 PM 21.2 °F 11.7 °F 14.0 °F 74% 30.09 in 10.0 mi SSE 8.1 mph - N/A   Clear
1:35 PM 23.0 °F 14.7 °F 14.0 °F 68% 30.09 in 10.0 mi SSE 6.9 mph - N/A   Clear
1:50 PM 24.8 °F 16.9 °F 17.6 °F 74% 30.09 in 10.0 mi SE 6.9 mph - N/A   Clear
2:15 PM 24.8 °F 16.1 °F 17.6 °F 74% 30.08 in 10.0 mi SSE 8.1 mph - N/A   Scattered Clouds
2:30 PM 23.0 °F 14.7 °F 15.8 °F 74% 30.09 in 10.0 mi SSE 6.9 mph - N/A   Mostly Cloudy
2:55 PM 24.8 °F 16.9 °F 17.6 °F 74% 30.10 in 10.0 mi SSE 6.9 mph - N/A   Overcast
3:10 PM 24.8 °F 16.1 °F 17.6 °F 74% 30.10 in 10.0 mi SSE 8.1 mph - N/A   Overcast
3:35 PM 24.8 °F 16.1 °F 17.6 °F 74% 30.10 in 10.0 mi SE 8.1 mph - N/A   Overcast
3:50 PM 23.0 °F 14.7 °F 17.6 °F 80% 30.11 in 10.0 mi ESE 6.9 mph - N/A   Overcast
4:15 PM 23.0 °F 13.9 °F 17.6 °F 80% 30.11 in 10.0 mi SE 8.1 mph - N/A   Overcast
4:35 PM 21.2 °F 10.9 °F 17.6 °F 86% 30.11 in 10.0 mi SE 9.2 mph - N/A   Overcast
4:55 PM 21.2 °F 10.9 °F 17.6 °F 86% 30.11 in 10.0 mi SE 9.2 mph - N/A   Overcast
5:15 PM 21.2 °F 10.9 °F 17.6 °F 86% 30.11 in 10.0 mi SE 9.2 mph - N/A   Overcast
5:35 PM 21.2 °F 12.6 °F 17.6 °F 86% 30.13 in 10.0 mi SE 6.9 mph - N/A   Overcast
5:55 PM 21.2 °F 10.9 °F 17.6 °F 86% 30.13 in 10.0 mi SE 9.2 mph - N/A   Overcast
6:10 PM 21.2 °F 12.6 °F 17.6 °F 86% 30.14 in 10.0 mi ESE 6.9 mph - N/A   Overcast
6:35 PM 21.2 °F 12.6 °F 17.6 °F 86% 30.15 in 10.0 mi ESE 6.9 mph - N/A   Overcast
6:55 PM 21.2 °F 12.6 °F 17.6 °F 86% 30.17 in 10.0 mi East 6.9 mph - N/A   Overcast
7:10 PM 21.2 °F 14.9 °F 17.6 °F 86% 30.16 in 10.0 mi ESE 4.6 mph - N/A   Overcast
7:30 PM 21.2 °F 10.1 °F 17.6 °F 86% 30.15 in 10.0 mi SSE 10.4 mph - N/A   Overcast
7:50 PM 21.2 °F 12.6 °F 17.6 °F 86% 30.16 in 10.0 mi South 6.9 mph - N/A   Overcast
8:15 PM 21.2 °F 10.9 °F 17.6 °F 86% 30.17 in 10.0 mi South 9.2 mph - N/A   Overcast
8:35 PM 21.2 °F 11.7 °F 19.4 °F 93% 30.16 in 10.0 mi SSE 8.1 mph - N/A   Overcast
8:55 PM 21.2 °F 12.6 °F 19.4 °F 93% 30.16 in 10.0 mi South 6.9 mph - N/A   Overcast
9:15 PM 21.2 °F - 19.4 °F 93% 30.17 in 10.0 mi Calm Calm - N/A   Overcast
9:35 PM 21.2 °F - 19.4 °F 93% 30.17 in 10.0 mi Calm Calm - N/A   Overcast
9:55 PM 21.2 °F - 19.4 °F 93% 30.16 in 10.0 mi Calm Calm - N/A   Overcast
10:15 PM 21.2 °F - 19.4 °F 93% 30.16 in 10.0 mi Calm Calm - N/A   Overcast
10:35 PM 21.2 °F 16.4 °F 19.4 °F 93% 30.16 in 10.0 mi SSW 3.5 mph - N/A   Overcast
10:55 PM 21.2 °F 14.9 °F 19.4 °F 93% 30.15 in 10.0 mi South 4.6 mph - N/A   Overcast
11:15 PM 21.2 °F 14.9 °F 19.4 °F 93% 30.15 in 10.0 mi South 4.6 mph - N/A   Overcast
11:35 PM 21.2 °F 12.6 °F 19.4 °F 93% 30.15 in 10.0 mi SSW 6.9 mph - N/A   Overcast
11:55 PM 21.2 °F 14.9 °F 19.4 °F 93% 30.14 in 10.0 mi SW 4.6 mph - N/A   Overcast